Location: Martz Observatory
(42.0083°N, 79.0667°W)
Time: 06:31:42
(UTC-04:00)

IRS-1D - Pass Details

Date: 26 May 2018
Orbit: 740 x 817 km, 98.5° (Epoch: 17 August)

Event Time Altitude Azimuth Distance (km) Brightness Sun altitude
Rises 04:06:36 0° 7° (N) 3,356 7.8 -15.2°
Reaches altitude 10° 04:09:02 10° 1° (N) 2,417 6.8 -14.9°
Maximum altitude 04:14:06 45° 290° (WNW) 1,097 4.1 -14.3°
Enters shadow 04:17:24 20° 228° (SW) 1,776 4.7 -13.9°
